Regional Weather Roundup
Issued by NWS

Home | Current Version | Previous Version | Graphics & Text | Print | Product List | Glossary On
Versions: 1 2 3 4 5 6 7 8 9 10 11 12 13 14 15 16 17 18 19 20 21 22 23 24 25 26 27 28 29 30 31 32 33 34 35 36 37 38 39 40 41 42 43 44 45 46 47 48 49 50
237
ASUS43 KMPX 090310
RWRMN
WEATHER ROUNDUP FOR MINNESOTA
NATIONAL WEATHER SERVICE TWIN CITIES/CHANHASSEN MN
900 PM CST MON FEB 08 2016


NOTE: "FAIR" INDICATES FEW OR NO CLOUDS BELOW 12,000 FEET WITH NO
SIGNIFICANT WEATHER AND/OR OBSTRUCTIONS TO VISIBILITY. N/A MEANS
CURRENT SKY AND/OR WEATHER CONDITIONS ARE NOT AVAILABLE.

MNZ060>063-068>070-090400-
   Twin Cities Metro

CITY           SKY/WX    TMP DP  RH WIND       PRES   REMARKS
TWIN CITIES    FLURRIES  14   5  67 NW21G29   29.97S WCI  -4
ST PAUL        FLURRIES  14   6  70 NW17G24   29.98S WCI  -3
CRYSTAL        CLOUDY    14   5  67 NW17      29.97S WCI  -3
BLAINE         FLURRIES  16   7  67 NW17      29.96S WCI   0
LAKEVILLE      FLURRIES  12   7  79 NW16G23   29.95S WCI  -4
EDEN PRAIRIE   CLOUDY    15   5  64 NW14G24   29.96S WCI   0
SOUTH ST PAUL  FLURRIES  15   8  73 N12G20    29.96S WCI   2
LAKE ELMO      FLURRIES  14   9  79 N12G20    29.96S WCI   0
$$
MNZ001>005-007-008-013>017-022>024-027-028-090400-
   Northwest Minnesota

CITY           SKY/WX    TMP DP  RH WIND       PRES   REMARKS
BEMIDJI        CLOUDY     6   1  77 N13       30.07R WCI -10
HALLOCK        CLEAR      7   1  78 N13       30.26R WCI  -9
ROSEAU         CLEAR      5   0  78 NW13      30.18S WCI -12
WARROAD        PTCLDY     5   0  78 NW9       30.17R WCI  -9
CROOKSTON      CLEAR      7   3  85 N20       30.23R WCI -13
FOSSTON        CLOUDY     7   1  78 N18G26    30.14R FOG     WCI -12
DETROIT LAKES  LGT SNOW   9   5  85 N23       30.12S WCI -12
MOORHEAD       CLEAR      9   1  72 N25G33    30.21R WCI -13
PARK RAPIDS    CLOUDY     9   1  70 N18G26    30.04S WCI -10
MAHNOMEN       CLOUDY     8   4  85 N18G25    30.14R FOG     WCI -11
$$
MNZ006-009>011-018-025>026-090400-
   North Central Minnesota

CITY           SKY/WX    TMP DP  RH WIND       PRES   REMARKS
BAUDETTE       CLOUDY     5  -2  72 NW15      30.10R WCI -13
FLAG ISLAND    PTCLDY     3  -2  78 N16       30.14S WCI -16
INTL FALLS     CLOUDY     3  -4  72 N15       30.05S WCI -16
WASKISH        CLOUDY     7   0  72 NW12G17   30.10R WCI  -9
LONGVILLE      FLURRIES   7   1  78 N8G18     30.02F WCI  -6
GRAND RAPIDS   CLOUDY     3  -2  78 N17       29.99S WCI -17
CRANE LAKE     CLOUDY     3   0  85 NW9       30.02S WCI -11
ORR            FLURRIES   1  -4  78 NW8G17    29.97S WCI -12
COOK           LGT SNOW   3  -2  78 NW10      29.98S WCI -12
WALKER         CLOUDY     7   0  72 N12G24    30.05R WCI  -9
$$
MNZ012-019>021-037-090400-
   Northeast Minnesota

CITY           SKY/WX    TMP DP  RH WIND       PRES   REMARKS
DULUTH         FLURRIES   5  -2  72 NW15G28   29.89R WCI -13
ELY            FLURRIES   3   0  85 NW10G20   29.92S WCI -12
HIBBING        LGT SNOW   2  -3  80 NW18      29.96S WCI -19
EVELETH        CLOUDY     5   0  78 NW10G17   29.96R WCI -10
DULUTH HARBOR  CLOUDY    10   1  67 NW10G16   30.00R WCI  -3
TWO HARBORS    CLOUDY     9   1  72 NW5       29.90R WCI   0
SILVER BAY     FLURRIES   9   1  72 NW7       29.89R WCI  -3
GRAND MARAIS     N/A     11   1  64 CALM      29.89R
G MARAIS ARPRT LGT SNOW   3  -2  78 NW22G31   29.75F WCI -19
$$
MNZ029>031-032-039>041-046>048-054>057-064-090400-
   West Central Minnesota

CITY           SKY/WX    TMP DP  RH WIND       PRES   REMARKS
FERGUS FALLS   CLOUDY     9   3  78 N21G35    30.18R WCI -11
WHEATON        LGT SNOW  10   7  85 NW23G32   30.21R WCI -10
MORRIS         PTCLDY     9   1  72 NW25G35   30.11R WCI -13
ALEXANDRIA     CLOUDY     8   1  73 N22G35    30.05S WCI -12
ELBOW LAKE     CLOUDY     8   3  78 NW22G28   30.12R WCI -12
WADENA         FLURRIES   7   1  78 NW12      30.06R WCI  -9
GLENWOOD       CLOUDY     9   3  78 NW21G28   30.05S WCI -11
APPLETON       CLOUDY    12   5  73 N24G35    30.15R WCI  -8
BENSON         CLOUDY    10   1  67 N20G29    30.09F WCI  -8
ORTONVILLE     LGT SNOW  10   5  79 N21G28    30.15R WCI  -9
MADISON        LGT SNOW  12   7  79 N21       30.16R WCI  -6
WILLMAR        CLOUDY    12   7  79 NW18      30.06S WCI  -5
$$
MNZ033>034-036-042>043-049>051-058-059-090400-
   Central Minnesota

CITY           SKY/WX    TMP DP  RH WIND       PRES   REMARKS
ST CLOUD       CLOUDY    11   2  67 NW16G24   30.00S WCI  -6
SAUK CENTRE    CLOUDY    10   5  80 NW16G23   30.04S HAZE    WCI  -8
PAYNESVILLE    CLOUDY    11   6  79 NW16G22   30.03S WCI  -5
AITKIN         MIX PCPN  10  -2  56 NW14G25   29.99S WCI  -5
PINE RIVER     FLURRIES   9   1  72 N15       30.05S WCI  -8
BRAINERD       MIX PCPN   9   1  70 N17       30.01S WCI  -9
STAPLES        CLOUDY     9   1  72 N16G25    30.03F WCI  -9
LONG PRAIRIE   CLOUDY    10   3  72 NW15G22   30.03S WCI  -6
LITTLE FALLS   FLURRIES  10   1  67 NW13G18   30.03S WCI  -5
LITCHFIELD     CLOUDY    12   7  79 NW22G29   30.02R WCI  -7
BUFFALO        FLURRIES  13   4  68 NW17G23   30.01R WCI  -4
MAPLE LAKE     FLURRIES  14   7  74 NW21G28   30.01S WCI  -4
$$
MNZ037-044-045-052-053-090400-
   East Central Minnesota

CITY           SKY/WX    TMP DP  RH WIND       PRES   REMARKS
PRINCETON      FLURRIES  12   5  73 NW15G28   29.98F WCI  -4
MORA           CLOUDY    12   3  67 N3G23     29.98S
CAMBRIDGE      FLURRIES  14   3  62 NW15G22   29.96S WCI  -1
RUSH CITY      CLOUDY    11   3  68 N15G23    29.98R WCI  -5
MOOSE LAKE     CLOUDY     9   0  66 N14G23    29.95S WCI  -8
HINCKLEY       CLOUDY    12   3  67 N16G23    29.97R WCI  -4
CLOQUET        CLOUDY     7  -2  66 NW17G29   29.93R WCI -12
MCGREGOR       CLOUDY     9   1  72 NW17G25   29.99S WCI -10
$$
MNZ071>073-080-081-089-090-097-098-090400-
   Southwest Minnesota

CITY           SKY/WX    TMP DP  RH WIND       PRES   REMARKS
MONTEVIDEO     CLOUDY    10   5  79 N23G33    30.12S WCI -10
GRANITE FALLS  MOCLDY    12   5  72 NW22G31   30.12S WCI  -6
CANBY          FLURRIES  14  10  83 NW14G21   30.15R WCI   0
MARSHALL       LGT SNOW  10   7  85 N25       30.10S FOG     WCI -10
REDWOOD FALLS  PTCLDY    10   2  69 NW21G35   30.05F WCI  -9
OLIVIA         MOCLDY    12   5  73 NW22G28   30.04F WCI  -7
PIPESTONE      FLURRIES  16   7  67 N10       30.06S WCI   3
WINDOM         CLOUDY    10   7  85 NW26G37   30.02F FOG     WCI -11
WORTHINGTON    CLOUDY   N/A N/A N/A NW26      30.03F
JACKSON        MOCLDY    12   5  73 NW32G40   30.00F WCI -10
TRACY          CLEAR     12   7  81 N23G29    30.08S WCI  -8
SLAYTON        LGT SNOW  11  10  92 N20G26    30.05S WCI  -7
$$
MNZ065>067-074>077-082>085-091>093-090400-
   South Central Minnesota

CITY           SKY/WX    TMP DP  RH WIND       PRES   REMARKS
MANKATO        CLOUDY   N/A N/A N/A NW21G32   29.97S
NEW ULM        CLOUDY    10   3  72 NW24G32   30.00R WCI -10
ST JAMES       CLOUDY    12   7  79 NW28G35   30.03S WCI  -9
FAIRMONT       CLOUDY    12   3  67 NW28G33   29.98S WCI  -9
GLENCOE        FLURRIES  14   8  76 NW20G28   29.99F WCI  -3
FARIBAULT      LGT SNOW  12   9  85 NW13G21   29.95F WCI  -3
OWATONNA       LGT SNOW  12   9  85 NW20G26   29.93F WCI  -6
WASECA         FLURRIES  14   7  73 NW24G32   29.96F WCI  -5
ALBERT LEA     LGT SNOW  12   9  85 NW12G20   29.92S WCI  -2
$$
MNZ078>079-086>088-094>096-090400-
   Southeast Minnesota

CITY           SKY/WX    TMP DP  RH WIND       PRES   REMARKS
ROCHESTER      LGT SNOW  13   8  81 N18       29.88S WCI  -4
RED WING       FLURRIES  16   7  67 N8        29.94S WCI   5
STANTON        LGT SNOW  16   8  72 NW17      29.94S WCI   0
DODGE CENTER   LGT SNOW  12   9  85 NW17      29.89S WCI  -5
WINONA         CLOUDY    18  12  79 N13G18    29.92S WCI   4
AUSTIN         LGT SNOW  12  10  92 NW16G22   29.90S WCI  -4
PRESTON        LGT SNOW  12   8  82 N16       29.87F WCI  -4
$$
ABBREVIATIONS USED IN REMARKS
   TC - TEMPERATURES IN CELSIUS
  WCI - WIND CHILL INDEX
   HX - HEAT INDEX
  VSB - VISIBILITY
$$




USA.gov is the U.S. government's official web portal to all federal, state and local government web resources and services.